Location: Saint-Maurice-d�Ard�che
(44.5216°N, 4.4002°E)
Time: 19:40:58
(UTC+00:00)

NOSS 3-3 (C) - Pass Details

Date: 30 March 2020
Orbit: 836 x 1376 km, 63.4° (Epoch: 05 May)

Event Time Altitude Azimuth Distance (km) Brightness Sun altitude
Rises 19:39:50 0° 193° (SSW) 3,403 6.7 -16.6°
Reaches altitude 10° 19:42:19 10° 187° (S) 2,505 6.0 -17.0°
Maximum altitude 19:47:44 43° 117° (ESE) 1,266 4.1 -17.9°
Drops below altitude 10° 19:53:45 10° 47° (NE) 2,783 6.2 -18.9°
Sets 19:56:37 0° 42° (NE) 3,823 7.0 -19.3°
